Weather reports worldwide

Advertisment
Newton Rigg, United Kingdom (99152): temperature & dewpoint: 10.11.2018 10:00:00 - 16.11.2018 10:00:00 (GMT)Newton Rigg, United Kingdom (99152): temperature -20cm & temperature -100cm: 10.11.2018 10:00:00 - 16.11.2018 10:00:00 (GMT)Newton Rigg, United Kingdom (99152): precipitation: 10.11.2018 10:00:00 - 16.11.2018 10:00:00 (GMT)
Date & Time tt [°C] td [°C] tt -20cm [°C] tt -100cm [°C] rr [mm]
16.11.2018 10:00:00 - - - - -
16.11.2018 09:00:00 - - - - -
16.11.2018 08:00:00 - - - - -
16.11.2018 07:00:00 - - - - -
16.11.2018 06:00:00 - - - - -
16.11.2018 05:00:00 - - - - -
16.11.2018 04:00:00 - - - - -
16.11.2018 03:00:00 - - - - -
16.11.2018 02:00:00 - - - - -
16.11.2018 01:00:00 - - - - -
16.11.2018 00:00:00 - - - - -
15.11.2018 23:00:00 - - - - -
15.11.2018 22:00:00 - - - - -
15.11.2018 21:00:00 - - - - -
15.11.2018 20:00:00 - - - - -
15.11.2018 19:00:00 - - - - -
15.11.2018 18:00:00 - - - - -
15.11.2018 17:00:00 - - - - -
15.11.2018 16:00:00 - - - - -
15.11.2018 15:00:00 - - - - -
15.11.2018 14:00:00 - - - - -
15.11.2018 13:00:00 - - - - -
15.11.2018 12:00:00 - - - - -
15.11.2018 11:00:00 - - - - -
15.11.2018 10:00:00 - - - - -
15.11.2018 09:00:00 - - - - -
15.11.2018 08:00:00 - - - - -
15.11.2018 07:00:00 - - - - -
15.11.2018 06:00:00 - - - - -
15.11.2018 05:00:00 - - - - -
15.11.2018 04:00:00 - - - - -
15.11.2018 03:00:00 - - - - -
15.11.2018 02:00:00 - - - - -
15.11.2018 01:00:00 - - - - -
15.11.2018 00:00:00 - - - - -
14.11.2018 23:00:00 - - - - -
14.11.2018 22:00:00 - - - - -
14.11.2018 21:00:00 - - - - -
14.11.2018 20:00:00 - - - - -
14.11.2018 19:00:00 - - - - -
14.11.2018 18:00:00 - - - - -
14.11.2018 17:00:00 - - - - -
14.11.2018 16:00:00 - - - - -
14.11.2018 15:00:00 - - - - -
14.11.2018 14:00:00 - - - - -
14.11.2018 13:00:00 - - - - -
14.11.2018 12:00:00 12,4 10,4 - - 0,0
14.11.2018 11:00:00 11,9 10,3 - - 0,0
14.11.2018 10:00:00 11,4 10,1 - - 0,2
14.11.2018 09:00:00 11,0 10,1 9,5 10,2 0,4
14.11.2018 08:00:00 10,1 9,1 - - 0,4
14.11.2018 07:00:00 10,1 8,5 - - 0,2
14.11.2018 06:00:00 10,3 8,1 - - 0,0
14.11.2018 05:00:00 9,9 8,0 - - 0,2
14.11.2018 04:00:00 9,2 8,0 - - 0,0
14.11.2018 03:00:00 9,8 7,8 - - 0,0
14.11.2018 02:00:00 9,7 7,9 - - 0,0
14.11.2018 01:00:00 9,7 7,4 - - 0,0
14.11.2018 00:00:00 9,8 7,2 - - 0,0
13.11.2018 23:00:00 9,9 7,1 - - 0,0
13.11.2018 22:00:00 10,1 7,1 - - 0,0
13.11.2018 21:00:00 10,1 7,4 - - 0,0
13.11.2018 20:00:00 9,9 7,8 - - 0,0
13.11.2018 19:00:00 10,3 7,0 - - 0,0
13.11.2018 18:00:00 10,0 7,3 - - 0,0
13.11.2018 17:00:00 9,4 5,6 - - 0,0
13.11.2018 16:00:00 9,0 4,6 - - 0,0
13.11.2018 15:00:00 9,9 5,2 - - 0,0
13.11.2018 14:00:00 10,5 5,8 - - 0,0
13.11.2018 13:00:00 10,2 5,8 - - 0,0
13.11.2018 12:00:00 10,0 6,1 - - 0,0
13.11.2018 11:00:00 9,6 5,7 - - 0,0
13.11.2018 10:00:00 9,4 5,7 - - 0,0
13.11.2018 09:00:00 9,1 5,9 9,4 10,2 0,0
13.11.2018 08:00:00 8,8 6,0 - - 0,0
13.11.2018 07:00:00 8,1 7,1 - - 0,2
13.11.2018 06:00:00 8,5 6,5 - - 0,4
13.11.2018 05:00:00 8,4 6,8 - - 0,6
13.11.2018 04:00:00 8,0 6,7 - - 1,0
13.11.2018 03:00:00 8,2 7,2 - - 1,4
13.11.2018 02:00:00 7,4 7,0 - - 0,6
13.11.2018 01:00:00 7,2 6,5 - - 2,0
13.11.2018 00:00:00 7,6 6,2 - - 1,6
12.11.2018 23:00:00 8,3 6,1 - - 0,0
12.11.2018 22:00:00 8,6 5,9 - - 0,0
12.11.2018 21:00:00 8,0 6,4 - - 0,6
12.11.2018 20:00:00 7,9 6,5 - - 3,2
12.11.2018 19:00:00 8,2 6,5 - - 1,6
12.11.2018 18:00:00 9,5 6,2 - - 0,0
12.11.2018 17:00:00 9,2 7,2 - - 0,0
12.11.2018 16:00:00 9,0 6,3 - - 0,0
12.11.2018 15:00:00 8,2 6,1 - - 2,2
12.11.2018 14:00:00 7,3 6,2 - - 2,8
12.11.2018 13:00:00 10,4 7,2 - - 0,0
12.11.2018 12:00:00 9,6 7,7 - - 0,2
12.11.2018 11:00:00 9,2 7,2 - - 0,0
12.11.2018 10:00:00 9,0 6,6 - - 0,0
12.11.2018 09:00:00 8,5 6,9 9,4 10,4 0,0
12.11.2018 08:00:00 8,4 6,8 - - 0,0
12.11.2018 07:00:00 8,4 7,0 - - 0,2
12.11.2018 06:00:00 8,2 7,0 - - 0,2
12.11.2018 05:00:00 8,4 7,2 - - 0,6
12.11.2018 04:00:00 8,3 7,0 - - 0,4
12.11.2018 03:00:00 8,1 6,9 - - 1,0
12.11.2018 02:00:00 8,2 7,0 - - 1,2
12.11.2018 01:00:00 8,1 6,9 - - 1,2
12.11.2018 00:00:00 8,0 6,5 - - 0,8
11.11.2018 23:00:00 7,7 5,8 - - 3,8
11.11.2018 22:00:00 7,8 6,6 - - 1,8
11.11.2018 21:00:00 8,1 5,7 - - 0,6
11.11.2018 20:00:00 8,4 6,5 - - 0,6
11.11.2018 19:00:00 8,8 6,2 - - 0,0
11.11.2018 18:00:00 7,8 5,6 - - 0,2
11.11.2018 17:00:00 6,7 4,2 - - 0,0
11.11.2018 16:00:00 8,2 4,5 - - 0,0
11.11.2018 15:00:00 8,9 4,6 - - 0,0
11.11.2018 14:00:00 9,7 6,4 - - 0,0
11.11.2018 13:00:00 8,3 6,7 - - 0,0
11.11.2018 12:00:00 8,1 7,0 - - 0,8
11.11.2018 11:00:00 7,6 6,4 - - 0,2
11.11.2018 10:00:00 7,9 6,1 - - 0,0
11.11.2018 09:00:00 7,6 6,0 9,7 10,4 0,0
11.11.2018 08:00:00 7,2 5,5 - - 0,0
11.11.2018 07:00:00 7,3 5,8 - - 0,0
11.11.2018 06:00:00 7,1 5,8 - - 0,0
11.11.2018 05:00:00 7,1 5,7 - - 0,0
11.11.2018 04:00:00 7,0 6,0 - - 0,0
11.11.2018 03:00:00 7,5 6,1 - - 0,0
11.11.2018 02:00:00 7,0 6,0 - - 0,0
11.11.2018 01:00:00 7,4 6,3 - - 0,0
11.11.2018 00:00:00 7,8 6,4 - - 0,0
10.11.2018 23:00:00 8,1 6,9 - - 0,0
10.11.2018 22:00:00 7,7 6,4 - - 0,0
10.11.2018 21:00:00 8,4 6,1 - - 0,0
10.11.2018 20:00:00 8,6 6,7 - - 0,0
10.11.2018 19:00:00 8,4 7,5 - - 0,4
10.11.2018 18:00:00 7,2 5,9 - - 1,8
10.11.2018 17:00:00 8,8 7,6 - - 0,2
10.11.2018 16:00:00 9,0 7,5 - - 0,6
10.11.2018 15:00:00 9,6 7,0 - - 0,0
10.11.2018 14:00:00 9,8 7,2 - - 0,0
10.11.2018 13:00:00 10,3 6,9 - - 0,0
10.11.2018 12:00:00 9,8 7,1 - - 0,0
10.11.2018 11:00:00 8,9 6,1 - - 0,0
10.11.2018 10:00:00 8,4 6,7 - - 0,0

tt = temperature
td = dewpoint
tt -20cm = temperature -20cm
tt -100cm = temperature -100cm
rr = precipitation

Next stations